| time (UTC) | temp F | wind direction | speed knots | gust knots | rain 1hr in | rain 24hr in | rain mn in | humidity % | barometer mb |
| 20260508060057 | 64 | 0 | 0.0 | 0.9 | 0.00 | 0.00 | 0.00 | 32 | 1018.2 |
| 20260508055555 | 65 | 0 | 0.0 | 0.0 | 0.00 | 0.00 | 0.00 | 30 | 1018.2 |
| 20260508055055 | 65 | 0 | 0.0 | 3.5 | 0.00 | 0.00 | 0.00 | 30 | 1018.2 |
| 20260508054556 | 66 | 0 | 0.0 | 3.5 | 0.00 | 0.00 | 0.00 | 29 | 1018.2 |
| 20260508054056 | 66 | 0 | 0.0 | 5.2 | 0.00 | 0.00 | 0.00 | 29 | 1018.3 |
| 20260508053555 | 66 | 0 | 0.0 | 5.2 | 0.00 | 0.00 | 0.00 | 29 | 1018.2 |
| 20260508053055 | 67 | 0 | 0.0 | 0.0 | 0.00 | 0.00 | 0.00 | 29 | 1018.2 |
| 20260508052557 | 67 | 0 | 0.0 | 0.0 | 0.00 | 0.00 | 0.00 | 29 | 1018.1 |
| 20260508052053 | 66 | 0 | 0.0 | 0.0 | 0.00 | 0.00 | 0.00 | 29 | 1018.1 |
| 20260508051556 | 66 | 0 | 0.0 | 0.0 | 0.00 | 0.00 | 0.00 | 31 | 1018.2 |
| 20260508051055 | 66 | 0 | 0.0 | 0.9 | 0.00 | 0.00 | 0.00 | 30 | 1018.2 |
| 20260508050555 | 65 | 0 | 0.0 | 0.9 | 0.00 | 0.00 | 0.00 | 32 | 1018.2 |
| 20260508050059 | 66 | 0 | 0.0 | 0.0 | 0.00 | 0.00 | 0.00 | 31 | 1018.2 |
| 20260508045554 | 66 | 0 | 0.0 | 0.0 | 0.00 | 0.00 | 0.00 | 30 | 1018.2 |
| 20260508045057 | 67 | 0 | 0.0 | 0.0 | 0.00 | 0.00 | 0.00 | 29 | 1018.1 |
| 20260508044554 | 67 | 0 | 0.0 | 0.0 | 0.00 | 0.00 | 0.00 | 29 | 1018.0 |
| 20260508044056 | 67 | 0 | 0.0 | 0.0 | 0.00 | 0.00 | 0.00 | 29 | 1017.9 |
| 20260508043556 | 67 | 0 | 0.0 | 0.0 | 0.00 | 0.00 | 0.00 | 29 | 1017.7 |
| 20260508043107 | 67 | 0 | 0.0 | 0.0 | 0.00 | 0.00 | 0.00 | 29 | 1017.7 |
| 20260508042555 | 67 | 0 | 0.0 | 0.0 | 0.00 | 0.00 | 0.00 | 29 | 1017.7 |
| 20260508042055 | 67 | 0 | 0.0 | 0.0 | 0.00 | 0.00 | 0.00 | 30 | 1017.8 |
| 20260508041556 | 67 | 0 | 0.0 | 0.0 | 0.00 | 0.00 | 0.00 | 30 | 1017.8 |
| 20260508041055 | 67 | 0 | 0.0 | 0.0 | 0.00 | 0.00 | 0.00 | 29 | 1017.7 |
| 20260508040555 | 68 | 0 | 0.0 | 0.0 | 0.00 | 0.00 | 0.00 | 29 | 1017.9 |
| 20260508040057 | 68 | 0 | 0.0 | 0.0 | 0.00 | 0.00 | 0.00 | 29 | 1017.7 |
| 20260508035554 | 68 | 0 | 0.0 | 0.0 | 0.00 | 0.00 | 0.00 | 28 | 1017.7 |
| 20260508035055 | 68 | 0 | 0.0 | 0.0 | 0.00 | 0.00 | 0.00 | 29 | 1017.7 |
| 20260508034556 | 68 | 0 | 0.0 | 0.0 | 0.00 | 0.00 | 0.00 | 28 | 1017.7 |
| 20260508034054 | 68 | 0 | 0.0 | 0.0 | 0.00 | 0.00 | 0.00 | 28 | 1017.6 |
| 20260508033556 | 68 | 0 | 0.0 | 0.0 | 0.00 | 0.00 | 0.00 | 27 | 1017.6 |
| 20260508033058 | 69 | 0 | 0.0 | 0.0 | 0.00 | 0.00 | 0.00 | 28 | 1017.7 |
| 20260508032555 | 69 | 0 | 0.0 | 7.0 | 0.00 | 0.00 | 0.00 | 27 | 1017.7 |
| 20260508032057 | 68 | 0 | 0.9 | 7.0 | 0.00 | 0.00 | 0.00 | 28 | 1017.7 |
| 20260508031555 | 68 | 237 | 0.0 | 5.2 | 0.00 | 0.00 | 0.00 | 29 | 1017.8 |
| 20260508031054 | 68 | 0 | 0.0 | 0.0 | 0.00 | 0.00 | 0.00 | 29 | 1017.7 |
| 20260508030553 | 68 | 0 | 0.0 | 5.2 | 0.00 | 0.00 | 0.00 | 28 | 1017.5 |
| 20260508030058 | 68 | 0 | 0.0 | 7.0 | 0.00 | 0.00 | 0.00 | 28 | 1017.5 |
| 20260508025552 | 69 | 138 | 2.6 | 8.7 | 0.00 | 0.00 | 0.00 | 28 | 1017.5 |
| 20260508025054 | 69 | 98 | 3.5 | 8.7 | 0.00 | 0.00 | 0.00 | 28 | 1017.6 |
| 20260508024557 | 69 | 0 | 3.5 | 14.8 | 0.00 | 0.00 | 0.00 | 24 | 1017.6 |
| 20260508024053 | 69 | 0 | 0.0 | 20.9 | 0.00 | 0.00 | 0.00 | 27 | 1017.8 |
| 20260508023554 | 68 | 92 | 8.7 | 20.9 | 0.00 | 0.00 | 0.00 | 28 | 1018.3 |
| 20260508023057 | 68 | 122 | 14.8 | 26.9 | 0.00 | 0.00 | 0.00 | 31 | 1018.5 |
| 20260508022554 | 68 | 141 | 18.2 | 26.9 | 0.00 | 0.00 | 0.00 | 31 | 1018.7 |
| 20260508022055 | 69 | 103 | 20.0 | 26.9 | 0.00 | 0.00 | 0.00 | 30 | 1018.3 |
| 20260508021554 | 71 | 101 | 15.6 | 26.9 | 0.00 | 0.00 | 0.00 | 27 | 1018.0 |
| 20260508021054 | 71 | 0 | 2.6 | 31.3 | 0.00 | 0.00 | 0.00 | 23 | 1017.3 |
| 20260508020556 | 71 | 236 | 3.5 | 31.3 | 0.00 | 0.00 | 0.00 | 26 | 1017.0 |
| 20260508020056 | 72 | 42 | 12.2 | 31.3 | 0.00 | 0.00 | 0.00 | 26 | 1018.0 |
| 20260508015554 | 73 | 65 | 5.2 | 24.3 | 0.00 | 0.00 | 0.00 | 20 | 1016.3 |
| 20260508015054 | 73 | 50 | 10.4 | 24.3 | 0.00 | 0.00 | 0.00 | 19 | 1016.4 |
| 20260508014555 | 74 | 51 | 15.6 | 24.3 | 0.00 | 0.00 | 0.00 | 19 | 1015.9 |
| 20260508014055 | 74 | 32 | 7.0 | 14.8 | 0.00 | 0.00 | 0.00 | 20 | 1015.7 |
| 20260508013554 | 75 | 18 | 0.0 | 5.2 | 0.00 | 0.00 | 0.00 | 22 | 1015.5 |
| 20260508013053 | 75 | 18 | 0.0 | 5.2 | 0.00 | 0.00 | 0.00 | 25 | 1015.4 |
| 20260508012555 | 76 | 4 | 0.0 | 6.1 | 0.00 | 0.00 | 0.00 | 23 | 1015.4 |
| 20260508012055 | 76 | 0 | 0.9 | 6.1 | 0.00 | 0.00 | 0.00 | 21 | 1015.4 |
| 20260508011559 | 76 | 0 | 0.9 | 6.1 | 0.00 | 0.00 | 0.00 | 22 | 1015.4 |
| 20260508011054 | 76 | 1 | 2.6 | 7.8 | 0.00 | 0.00 | 0.00 | 19 | 1015.3 |
| 20260508010556 | 76 | 359 | 3.5 | 7.8 | 0.00 | 0.00 | 0.00 | 19 | 1015.3 |
| 20260508010058 | 77 | 0 | 2.6 | 6.1 | 0.00 | 0.00 | 0.00 | 20 | 1015.2 |
| 20260508005554 | 77 | 3 | 0.0 | 7.8 | 0.00 | 0.00 | 0.00 | 23 | 1015.1 |
| 20260508005057 | 77 | 0 | 1.7 | 7.8 | 0.00 | 0.00 | 0.00 | 20 | 1015.2 |
| 20260508004600 | 77 | 359 | 3.5 | 8.7 | 0.00 | 0.00 | 0.00 | 20 | 1015.1 |
| 20260508004054 | 77 | 359 | 5.2 | 8.7 | 0.00 | 0.00 | 0.00 | 18 | 1015.1 |
| 20260508003552 | 77 | 349 | 3.5 | 8.7 | 0.00 | 0.00 | 0.00 | 20 | 1014.9 |
| 20260508003059 | 77 | 1 | 4.3 | 9.6 | 0.00 | 0.00 | 0.00 | 21 | 1015.0 |
| 20260508002552 | 77 | 11 | 4.3 | 9.6 | 0.00 | 0.00 | 0.00 | 20 | 1015.0 |
| 20260508002055 | 77 | 356 | 4.3 | 11.3 | 0.00 | 0.00 | 0.00 | 20 | 1014.9 |
| 20260508001555 | 77 | 359 | 7.0 | 11.3 | 0.00 | 0.00 | 0.00 | 20 | 1014.9 |
| 20260508001055 | 78 | 359 | 6.1 | 10.4 | 0.00 | 0.00 | 0.00 | 20 | 1014.9 |
| 20260508000556 | 78 | 357 | 5.2 | 8.7 | 0.00 | 0.00 | 0.00 | 18 | 1015.0 |
| 20260508000054 | 78 | 0 | 3.5 | 8.7 | 0.00 | 0.00 | 0.00 | 19 | 1015.0 |
| 20260507235555 | 78 | 13 | 4.3 | 8.7 | 0.00 | 0.00 | 0.00 | 20 | 1014.9 |
| 20260507235055 | 77 | 5 | 2.6 | 9.6 | 0.00 | 0.00 | 0.00 | 17 | 1015.0 |
| 20260507234556 | 77 | 327 | 2.6 | 9.6 | 0.00 | 0.00 | 0.00 | 18 | 1014.9 |
| 20260507234056 | 76 | 298 | 1.7 | 9.6 | 0.00 | 0.00 | 0.00 | 18 | 1014.9 |
| 20260507233558 | 76 | 338 | 4.3 | 9.6 | 0.00 | 0.00 | 0.00 | 19 | 1014.9 |
| 20260507233053 | 76 | 357 | 4.3 | 10.4 | 0.00 | 0.00 | 0.00 | 17 | 1014.9 |
| 20260507232554 | 76 | 328 | 3.5 | 11.3 | 0.00 | 0.00 | 0.00 | 17 | 1014.9 |
| 20260507232055 | 76 | 360 | 6.1 | 11.3 | 0.00 | 0.00 | 0.00 | 18 | 1014.9 |
| 20260507231557 | 77 | 1 | 7.0 | 12.2 | 0.00 | 0.00 | 0.00 | 19 | 1015.0 |
| 20260507231056 | 78 | 330 | 7.0 | 12.2 | 0.00 | 0.00 | 0.00 | 17 | 1014.9 |
| 20260507230556 | 79 | 359 | 2.6 | 11.3 | 0.00 | 0.00 | 0.00 | 18 | 1014.9 |
| 20260507230104 | 79 | 359 | 7.8 | 11.3 | 0.00 | 0.00 | 0.00 | 19 | 1014.9 |
| 20260507225556 | 79 | 359 | 6.1 | 10.4 | 0.00 | 0.00 | 0.00 | 18 | 1015.0 |
| 20260507225056 | 79 | 0 | 0.9 | 6.1 | 0.00 | 0.00 | 0.00 | 14 | 1015.1 |
| 20260507224556 | 79 | 0 | 1.7 | 6.1 | 0.00 | 0.00 | 0.00 | 15 | 1015.0 |
| 20260507224058 | 79 | 300 | 3.5 | 6.1 | 0.00 | 0.00 | 0.00 | 15 | 1015.0 |
| 20260507223555 | 79 | 354 | 0.9 | 6.1 | 0.00 | 0.00 | 0.00 | 17 | 1015.1 |
| 20260507223101 | 79 | 0 | 0.0 | 6.1 | 0.00 | 0.00 | 0.00 | 16 | 1015.2 |
| 20260507222554 | 80 | 0 | 0.0 | 10.4 | 0.00 | 0.00 | 0.00 | 14 | 1015.2 |
| 20260507222055 | 80 | 259 | 4.3 | 10.4 | 0.00 | 0.00 | 0.00 | 15 | 1015.3 |
| 20260507221556 | 81 | 78 | 2.6 | 7.0 | 0.00 | 0.00 | 0.00 | 15 | 1015.3 |
| 20260507221055 | 80 | 0 | 2.6 | 7.0 | 0.00 | 0.00 | 0.00 | 15 | 1015.3 |
| 20260507220555 | 79 | 0 | 0.0 | 7.8 | 0.00 | 0.00 | 0.00 | 15 | 1015.3 |
| 20260507220054 | 80 | 75 | 0.9 | 7.8 | 0.00 | 0.00 | 0.00 | 15 | 1015.5 |
| 20260507215554 | 80 | 49 | 0.9 | 6.1 | 0.00 | 0.00 | 0.00 | 16 | 1015.5 |
| 20260507215055 | 80 | 0 | 1.7 | 6.1 | 0.00 | 0.00 | 0.00 | 14 | 1015.7 |
| 20260507214616 | 80 | 0 | 3.5 | 5.2 | 0.00 | 0.00 | 0.00 | 15 | 1015.7 |
| 20260507214056 | 80 | 0 | 0.0 | 8.7 | 0.00 | 0.00 | 0.00 | 15 | 1015.7 |
| 20260507213556 | 79 | 53 | 0.0 | 8.7 | 0.00 | 0.00 | 0.00 | 15 | 1015.7 |
| 20260507213106 | 79 | 43 | 2.6 | 9.6 | 0.00 | 0.00 | 0.00 | 15 | 1015.8 |
| 20260507212559 | 79 | 1 | 3.5 | 9.6 | 0.00 | 0.00 | 0.00 | 15 | 1015.8 |
| 20260507212100 | 78 | 0 | 0.0 | 7.0 | 0.00 | 0.00 | 0.00 | 16 | 1015.9 |
| 20260507211607 | 78 | 0 | 0.0 | 7.0 | 0.00 | 0.00 | 0.00 | 17 | 1016.0 |
| 20260507211055 | 79 | 27 | 1.7 | 7.8 | 0.00 | 0.00 | 0.00 | 16 | 1016.0 |
| 20260507210554 | 79 | 0 | 2.6 | 7.8 | 0.00 | 0.00 | 0.00 | 16 | 1016.0 |
| 20260507210056 | 78 | 1 | 0.9 | 8.7 | 0.00 | 0.00 | 0.00 | 17 | 1016.1 |
| 20260507205556 | 77 | 0 | 2.6 | 8.7 | 0.00 | 0.00 | 0.00 | 15 | 1016.1 |
| 20260507205053 | 77 | 0 | 0.9 | 8.7 | 0.00 | 0.00 | 0.00 | 17 | 1016.2 |
| 20260507204607 | 77 | 23 | 1.7 | 8.7 | 0.00 | 0.00 | 0.00 | 16 | 1016.2 |
| 20260507204054 | 78 | 0 | 2.6 | 7.0 | 0.00 | 0.00 | 0.00 | 16 | 1016.2 |
| 20260507203552 | 79 | 0 | 0.0 | 7.0 | 0.00 | 0.00 | 0.00 | 17 | 1016.3 |
| 20260507203059 | 78 | 297 | 4.3 | 7.8 | 0.00 | 0.00 | 0.00 | 16 | 1016.3 |
| 20260507202550 | 77 | 264 | 3.5 | 9.6 | 0.00 | 0.00 | 0.00 | 17 | 1016.3 |
| 20260507202053 | 76 | 1 | 3.5 | 9.6 | 0.00 | 0.00 | 0.00 | 17 | 1016.4 |
| 20260507201553 | 76 | 360 | 4.3 | 9.6 | 0.00 | 0.00 | 0.00 | 20 | 1016.5 |
| 20260507201054 | 75 | 295 | 2.6 | 7.0 | 0.00 | 0.00 | 0.00 | 18 | 1016.7 |
| 20260507200558 | 75 | 294 | 0.0 | 5.2 | 0.00 | 0.00 | 0.00 | 19 | 1016.8 |
| 20260507200054 | 74 | 0 | 0.9 | 5.2 | 0.00 | 0.00 | 0.00 | 19 | 1016.9 |
| 20260507195552 | 74 | 0 | 0.0 | 7.0 | 0.00 | 0.00 | 0.00 | 21 | 1017.0 |
| 20260507195051 | 74 | 10 | 3.5 | 7.0 | 0.00 | 0.00 | 0.00 | 23 | 1017.1 |
| 20260507194633 | 75 | 0 | 2.6 | 6.1 | 0.00 | 0.00 | 0.00 | 20 | 1017.1 |
| 20260507194052 | 76 | 359 | 1.7 | 7.0 | 0.00 | 0.00 | 0.00 | 19 | 1017.1 |
| 20260507193552 | 76 | 0 | 0.0 | 10.4 | 0.00 | 0.00 | 0.00 | 17 | 1017.1 |
| 20260507193053 | 77 | 202 | 4.3 | 14.8 | 0.00 | 0.00 | 0.00 | 17 | 1017.2 |
| 20260507192550 | 77 | 156 | 2.6 | 14.8 | 0.00 | 0.00 | 0.00 | 17 | 1017.2 |
| 20260507192051 | 78 | 183 | 3.5 | 14.8 | 0.00 | 0.00 | 0.00 | 17 | 1017.3 |
| 20260507191555 | 78 | 310 | 3.5 | 10.4 | 0.00 | 0.00 | 0.00 | 19 | 1017.3 |
| 20260507191053 | 77 | 115 | 2.6 | 8.7 | 0.00 | 0.00 | 0.00 | 18 | 1017.3 |
| 20260507190552 | 77 | 40 | 2.6 | 8.7 | 0.00 | 0.00 | 0.00 | 20 | 1017.4 |
| 20260507190052 | 76 | 359 | 4.3 | 8.7 | 0.00 | 0.00 | 0.00 | 18 | 1017.4 |
| 20260507185553 | 76 | 2 | 1.7 | 7.8 | 0.00 | 0.00 | 0.00 | 19 | 1017.5 |
| 20260507185052 | 76 | 0 | 0.0 | 11.3 | 0.00 | 0.00 | 0.00 | 19 | 1017.6 |
| 20260507184605 | 76 | 0 | 1.7 | 11.3 | 0.00 | 0.00 | 0.00 | 18 | 1017.5 |
| 20260507184051 | 76 | 113 | 0.9 | 6.1 | 0.00 | 0.00 | 0.00 | 19 | 1017.6 |
| 20260507183553 | 76 | 0 | 1.7 | 6.1 | 0.00 | 0.00 | 0.00 | 19 | 1017.7 |
| 20260507183055 | 75 | 105 | 1.7 | 5.2 | 0.00 | 0.00 | 0.00 | 19 | 1017.8 |
| 20260507182555 | 75 | 0 | 0.0 | 5.2 | 0.00 | 0.00 | 0.00 | 19 | 1017.8 |
| 20260507182054 | 74 | 0 | 0.9 | 5.2 | 0.00 | 0.00 | 0.00 | 20 | 1018.0 |
| 20260507181554 | 74 | 0 | 0.0 | 4.3 | 0.00 | 0.00 | 0.00 | 21 | 1018.0 |
| 20260507181053 | 74 | 0 | 0.9 | 7.8 | 0.00 | 0.00 | 0.00 | 21 | 1018.2 |
| 20260507180556 | 74 | 0 | 2.6 | 7.8 | 0.00 | 0.00 | 0.00 | 21 | 1018.3 |
| 20260507175556 | 74 | 0 | 0.9 | 5.2 | 0.00 | 0.00 | 0.00 | 22 | 1018.6 |
| 20260507175052 | 74 | 1 | 1.7 | 5.2 | 0.00 | 0.00 | 0.00 | 23 | 1018.5 |
| 20260507174557 | 73 | 0 | 1.7 | 6.1 | 0.00 | 0.00 | 0.00 | 23 | 1018.5 |
| 20260507174052 | 73 | 0 | 0.0 | 6.1 | 0.00 | 0.00 | 0.00 | 23 | 1018.5 |
| 20260507173552 | 73 | 0 | 2.6 | 6.1 | 0.00 | 0.00 | 0.00 | 24 | 1018.5 |
| 20260507173055 | 72 | 0 | 0.0 | 5.2 | 0.00 | 0.00 | 0.00 | 24 | 1018.5 |
| 20260507172552 | 72 | 0 | 0.0 | 4.3 | 0.00 | 0.00 | 0.00 | 24 | 1018.6 |
| 20260507172053 | 72 | 0 | 0.0 | 6.1 | 0.00 | 0.00 | 0.00 | 23 | 1018.7 |
| 20260507171603 | 72 | 0 | 0.9 | 6.1 | 0.00 | 0.00 | 0.00 | 24 | 1018.7 |
| 20260507171052 | 72 | 21 | 0.9 | 5.2 | 0.00 | 0.00 | 0.00 | 26 | 1018.7 |
| 20260507170550 | 71 | 0 | 0.0 | 3.5 | 0.00 | 0.00 | 0.00 | 24 | 1018.7 |
| 20260507170056 | 71 | 0 | 0.0 | 1.7 | 0.00 | 0.00 | 0.00 | 25 | 1018.7 |
| 20260507165553 | 71 | 0 | 0.0 | 1.7 | 0.00 | 0.00 | 0.00 | 26 | 1018.8 |
| 20260507165052 | 70 | 0 | 0.0 | 5.2 | 0.00 | 0.00 | 0.00 | 26 | 1018.8 |
| 20260507164556 | 70 | 0 | 0.0 | 5.2 | 0.00 | 0.00 | 0.00 | 27 | 1018.8 |
| 20260507164052 | 70 | 0 | 0.9 | 5.2 | 0.00 | 0.00 | 0.00 | 28 | 1018.8 |
| 20260507163553 | 70 | 0 | 0.0 | 4.3 | 0.00 | 0.00 | 0.00 | 27 | 1018.9 |
| 20260507163058 | 70 | 360 | 0.0 | 6.1 | 0.00 | 0.00 | 0.00 | 27 | 1018.8 |
| 20260507162554 | 70 | 0 | 1.7 | 6.1 | 0.00 | 0.00 | 0.00 | 29 | 1018.8 |
| 20260507162053 | 69 | 24 | 0.0 | 6.1 | 0.00 | 0.00 | 0.00 | 27 | 1019.0 |
| 20260507161555 | 68 | 40 | 0.0 | 7.0 | 0.00 | 0.00 | 0.00 | 28 | 1018.9 |
| 20260507161052 | 68 | 24 | 2.6 | 7.0 | 0.00 | 0.00 | 0.00 | 28 | 1018.9 |
| 20260507160553 | 68 | 0 | 0.0 | 6.1 | 0.00 | 0.00 | 0.00 | 31 | 1019.0 |
| 20260507160052 | 67 | 0 | 0.0 | 5.2 | 0.00 | 0.00 | 0.00 | 30 | 1019.1 |
| 20260507155552 | 67 | 0 | 0.0 | 3.5 | 0.00 | 0.00 | 0.00 | 29 | 1019.1 |
| 20260507155055 | 67 | 0 | 0.0 | 0.0 | 0.00 | 0.00 | 0.00 | 31 | 1019.1 |
| 20260507154559 | 66 | 0 | 0.0 | 0.0 | 0.00 | 0.00 | 0.00 | 30 | 1019.2 |
| 20260507154053 | 66 | 0 | 0.0 | 0.0 | 0.00 | 0.00 | 0.00 | 32 | 1019.1 |
| 20260507153552 | 65 | 0 | 0.0 | 0.0 | 0.00 | 0.00 | 0.00 | 33 | 1019.1 |
| 20260507153054 | 65 | 0 | 0.0 | 0.0 | 0.00 | 0.00 | 0.00 | 35 | 1019.1 |
| 20260507152554 | 65 | 0 | 0.0 | 0.0 | 0.00 | 0.00 | 0.00 | 35 | 1019.2 |
| 20260507152053 | 64 | 0 | 0.0 | 0.0 | 0.00 | 0.00 | 0.00 | 35 | 1019.2 |
| 20260507151554 | 64 | 0 | 0.0 | 0.0 | 0.00 | 0.00 | 0.00 | 37 | 1019.3 |
| 20260507151052 | 64 | 0 | 0.0 | 0.9 | 0.00 | 0.00 | 0.00 | 37 | 1019.3 |
| 20260507150552 | 64 | 0 | 0.0 | 0.9 | 0.00 | 0.00 | 0.00 | 36 | 1019.4 |
| 20260507150059 | 64 | 0 | 0.0 | 0.0 | 0.00 | 0.00 | 0.00 | 34 | 1019.5 |
| 20260507145557 | 64 | 0 | 0.0 | 0.0 | 0.00 | 0.00 | 0.00 | 33 | 1019.5 |
| 20260507145054 | 64 | 0 | 0.0 | 0.0 | 0.00 | 0.00 | 0.00 | 38 | 1019.5 |
| 20260507144556 | 64 | 0 | 0.0 | 0.0 | 0.00 | 0.00 | 0.00 | 31 | 1019.5 |
| 20260507144056 | 64 | 0 | 0.0 | 0.0 | 0.00 | 0.00 | 0.00 | 35 | 1019.6 |
| 20260507143555 | 63 | 0 | 0.0 | 0.0 | 0.00 | 0.00 | 0.00 | 39 | 1019.5 |
| 20260507143107 | 62 | 0 | 0.0 | 0.0 | 0.00 | 0.00 | 0.00 | 42 | 1019.5 |
| 20260507142556 | 62 | 0 | 0.0 | 0.0 | 0.00 | 0.00 | 0.00 | 38 | 1019.5 |
| 20260507142053 | 61 | 0 | 0.0 | 0.0 | 0.00 | 0.00 | 0.00 | 36 | 1019.5 |
| 20260507141555 | 59 | 0 | 0.0 | 0.0 | 0.00 | 0.00 | 0.00 | 38 | 1019.5 |
| 20260507141055 | 58 | 0 | 0.0 | 0.0 | 0.00 | 0.00 | 0.00 | 38 | 1019.3 |
| 20260507140555 | 58 | 0 | 0.0 | 0.0 | 0.00 | 0.00 | 0.00 | 41 | 1019.3 |
| 20260507140057 | 57 | 0 | 0.0 | 0.0 | 0.00 | 0.00 | 0.00 | 39 | 1019.4 |
| 20260507135557 | 57 | 0 | 0.0 | 0.0 | 0.00 | 0.00 | 0.00 | 39 | 1019.3 |
| 20260507135056 | 56 | 0 | 0.0 | 0.0 | 0.00 | 0.00 | 0.00 | 41 | 1019.4 |
| 20260507134559 | 54 | 0 | 0.0 | 0.0 | 0.00 | 0.00 | 0.00 | 44 | 1019.4 |
| 20260507134055 | 53 | 0 | 0.0 | 0.0 | 0.00 | 0.00 | 0.00 | 49 | 1019.4 |
| 20260507133556 | 52 | 0 | 0.0 | 0.0 | 0.00 | 0.00 | 0.00 | 52 | 1019.2 |
| 20260507133100 | 51 | 0 | 0.0 | 0.0 | 0.00 | 0.00 | 0.00 | 55 | 1019.1 |
| 20260507132555 | 50 | 0 | 0.0 | 0.0 | 0.00 | 0.00 | 0.00 | 57 | 1019.1 |
| 20260507132055 | 49 | 0 | 0.0 | 0.0 | 0.00 | 0.00 | 0.00 | 60 | 1019.1 |
| 20260507131611 | 48 | 0 | 0.0 | 0.0 | 0.00 | 0.00 | 0.00 | 61 | 1019.1 |
| 20260507131056 | 47 | 0 | 0.0 | 0.0 | 0.00 | 0.00 | 0.00 | 61 | 1019.0 |
| 20260507130556 | 47 | 0 | 0.0 | 0.0 | 0.00 | 0.00 | 0.00 | 62 | 1019.0 |
| 20260507130055 | 46 | 0 | 0.0 | 0.0 | 0.00 | 0.00 | 0.00 | 61 | 1018.9 |
| 20260507125555 | 46 | 0 | 0.0 | 0.0 | 0.00 | 0.00 | 0.00 | 61 | 1018.9 |
| 20260507125053 | 45 | 0 | 0.0 | 0.0 | 0.00 | 0.00 | 0.00 | 61 | 1018.9 |
| 20260507124553 | 45 | 0 | 0.0 | 0.0 | 0.00 | 0.00 | 0.00 | 62 | 1018.9 |
| 20260507124056 | 45 | 0 | 0.0 | 0.0 | 0.00 | 0.00 | 0.00 | 63 | 1018.9 |
| 20260507123555 | 45 | 0 | 0.0 | 4.3 | 0.00 | 0.00 | 0.00 | 62 | 1019.0 |
| 20260507123059 | 45 | 0 | 0.0 | 4.3 | 0.00 | 0.00 | 0.00 | 62 | 1018.9 |
| 20260507122555 | 45 | 236 | 2.6 | 4.3 | 0.00 | 0.00 | 0.00 | 62 | 1018.7 |
| 20260507122056 | 45 | 236 | 1.7 | 4.3 | 0.00 | 0.00 | 0.00 | 63 | 1018.8 |
| 20260507121557 | 45 | 236 | 2.6 | 4.3 | 0.00 | 0.00 | 0.00 | 62 | 1018.8 |
| 20260507121055 | 45 | 236 | 2.6 | 4.3 | 0.00 | 0.00 | 0.00 | 62 | 1018.7 |
| 20260507120553 | 45 | 236 | 0.0 | 0.0 | 0.00 | 0.00 | 0.00 | 62 | 1018.7 |
| 20260507120058 | 45 | 0 | 0.0 | 0.0 | 0.00 | 0.00 | 0.00 | 61 | 1018.6 |
| 20260507115557 | 46 | 0 | 0.0 | 0.0 | 0.00 | 0.00 | 0.00 | 59 | 1018.7 |
| 20260507115054 | 46 | 0 | 0.0 | 0.0 | 0.00 | 0.00 | 0.00 | 59 | 1018.7 |
| 20260507114558 | 45 | 0 | 0.0 | 0.0 | 0.00 | 0.00 | 0.00 | 60 | 1018.7 |
| 20260507114055 | 46 | 0 | 0.0 | 0.0 | 0.00 | 0.00 | 0.00 | 60 | 1018.7 |
| 20260507113556 | 46 | 0 | 0.0 | 0.0 | 0.00 | 0.00 | 0.00 | 59 | 1018.7 |
| 20260507113100 | 45 | 0 | 0.0 | 0.0 | 0.00 | 0.00 | 0.00 | 60 | 1018.8 |
| 20260507112556 | 45 | 0 | 0.0 | 0.0 | 0.00 | 0.00 | 0.00 | 61 | 1018.7 |
| 20260507112055 | 45 | 0 | 0.0 | 0.0 | 0.00 | 0.00 | 0.00 | 61 | 1018.8 |
| 20260507111553 | 45 | 0 | 0.0 | 0.0 | 0.00 | 0.00 | 0.00 | 60 | 1018.8 |
| 20260507111055 | 46 | 0 | 0.0 | 0.0 | 0.00 | 0.00 | 0.00 | 59 | 1018.8 |
| 20260507110556 | 46 | 0 | 0.0 | 0.0 | 0.00 | 0.00 | 0.00 | 60 | 1018.7 |
| 20260507110053 | 46 | 0 | 0.0 | 0.0 | 0.00 | 0.00 | 0.00 | 59 | 1018.7 |
| 20260507105555 | 47 | 0 | 0.0 | 0.0 | 0.00 | 0.00 | 0.00 | 58 | 1018.7 |
| 20260507105058 | 46 | 0 | 0.0 | 0.0 | 0.00 | 0.00 | 0.00 | 58 | 1018.5 |
| 20260507104552 | 46 | 0 | 0.0 | 0.0 | 0.00 | 0.00 | 0.00 | 59 | 1018.7 |
| 20260507104054 | 46 | 0 | 0.0 | 0.0 | 0.00 | 0.00 | 0.00 | 58 | 1018.7 |
| 20260507103556 | 47 | 0 | 0.0 | 0.0 | 0.00 | 0.00 | 0.00 | 57 | 1018.7 |
| 20260507103055 | 47 | 0 | 0.0 | 0.0 | 0.00 | 0.00 | 0.00 | 56 | 1018.7 |
| 20260507102555 | 46 | 0 | 0.0 | 0.0 | 0.00 | 0.00 | 0.00 | 58 | 1018.7 |
| 20260507102057 | 46 | 0 | 0.0 | 2.6 | 0.00 | 0.00 | 0.00 | 58 | 1018.7 |
| 20260507101556 | 47 | 0 | 0.0 | 2.6 | 0.00 | 0.00 | 0.00 | 57 | 1018.8 |
| 20260507101055 | 47 | 236 | 0.0 | 0.0 | 0.00 | 0.00 | 0.00 | 56 | 1018.8 |
| 20260507100552 | 46 | 0 | 0.0 | 0.0 | 0.00 | 0.00 | 0.00 | 58 | 1018.7 |
| 20260507100055 | 46 | 0 | 0.0 | 0.0 | 0.00 | 0.00 | 0.00 | 58 | 1018.8 |
| 20260507095556 | 46 | 0 | 0.0 | 0.0 | 0.00 | 0.00 | 0.00 | 58 | 1018.8 |
| 20260507095055 | 46 | 0 | 0.0 | 0.0 | 0.00 | 0.00 | 0.00 | 59 | 1018.9 |
| 20260507094555 | 46 | 0 | 0.0 | 0.0 | 0.00 | 0.00 | 0.00 | 59 | 1018.8 |
| 20260507094052 | 46 | 0 | 0.0 | 0.0 | 0.00 | 0.00 | 0.00 | 58 | 1018.9 |
| 20260507093559 | 47 | 0 | 0.0 | 0.0 | 0.00 | 0.00 | 0.00 | 57 | 1018.8 |
| 20260507093055 | 47 | 0 | 0.0 | 0.0 | 0.00 | 0.00 | 0.00 | 57 | 1018.8 |
| 20260507092553 | 47 | 0 | 0.0 | 0.0 | 0.00 | 0.00 | 0.00 | 56 | 1018.8 |
| 20260507092056 | 47 | 0 | 0.0 | 0.0 | 0.00 | 0.00 | 0.00 | 56 | 1018.9 |
| 20260507091556 | 47 | 0 | 0.0 | 0.0 | 0.00 | 0.00 | 0.00 | 56 | 1019.0 |
| 20260507091100 | 47 | 0 | 0.0 | 0.0 | 0.00 | 0.00 | 0.00 | 55 | 1019.0 |
| 20260507090557 | 48 | 0 | 0.0 | 0.0 | 0.00 | 0.00 | 0.00 | 54 | 1019.0 |
| 20260507090054 | 48 | 0 | 0.0 | 2.6 | 0.00 | 0.00 | 0.00 | 54 | 1019.1 |
| 20260507085626 | 48 | 0 | 0.0 | 3.5 | 0.00 | 0.00 | 0.00 | 53 | 1019.1 |
| 20260507085056 | 49 | 0 | 0.0 | 3.5 | 0.00 | 0.00 | 0.00 | 51 | 1019.1 |
| 20260507084556 | 49 | 0 | 0.0 | 0.0 | 0.00 | 0.00 | 0.00 | 51 | 1019.0 |
| 20260507084056 | 49 | 0 | 0.0 | 0.0 | 0.00 | 0.00 | 0.00 | 51 | 1019.2 |
| 20260507083554 | 49 | 0 | 0.0 | 0.0 | 0.00 | 0.00 | 0.00 | 51 | 1019.1 |
| 20260507083053 | 49 | 0 | 0.0 | 0.0 | 0.00 | 0.00 | 0.00 | 50 | 1019.2 |
| 20260507082551 | 50 | 0 | 0.0 | 0.0 | 0.00 | 0.00 | 0.00 | 49 | 1019.3 |
| 20260507082057 | 50 | 0 | 0.0 | 0.0 | 0.00 | 0.00 | 0.00 | 48 | 1019.4 |
| 20260507081554 | 51 | 0 | 0.0 | 0.0 | 0.00 | 0.00 | 0.00 | 45 | 1019.2 |
| 20260507081055 | 52 | 0 | 0.0 | 0.0 | 0.00 | 0.00 | 0.00 | 44 | 1019.3 |
| 20260507080552 | 53 | 0 | 0.0 | 0.0 | 0.00 | 0.00 | 0.00 | 42 | 1019.4 |
| 20260507080111 | 53 | 0 | 0.0 | 0.0 | 0.00 | 0.00 | 0.00 | 40 | 1019.3 |
| 20260507075556 | 54 | 0 | 0.0 | 0.0 | 0.00 | 0.00 | 0.00 | 40 | 1019.3 |
| 20260507075056 | 54 | 0 | 0.0 | 0.0 | 0.00 | 0.00 | 0.00 | 39 | 1019.4 |
| 20260507074554 | 54 | 0 | 0.0 | 0.0 | 0.00 | 0.00 | 0.00 | 39 | 1019.3 |
| 20260507074055 | 53 | 0 | 0.0 | 0.0 | 0.00 | 0.00 | 0.00 | 40 | 1019.4 |
| 20260507073553 | 53 | 0 | 0.0 | 0.0 | 0.00 | 0.00 | 0.00 | 42 | 1019.3 |
| 20260507073054 | 53 | 0 | 0.0 | 0.0 | 0.00 | 0.00 | 0.00 | 42 | 1019.3 |
| 20260507072555 | 52 | 0 | 0.0 | 0.0 | 0.00 | 0.00 | 0.00 | 43 | 1019.4 |
| 20260507072054 | 52 | 0 | 0.0 | 2.6 | 0.00 | 0.00 | 0.00 | 44 | 1019.4 |
| 20260507071609 | 52 | 0 | 0.0 | 2.6 | 0.00 | 0.00 | 0.00 | 44 | 1019.4 |
| 20260507071058 | 53 | 0 | 0.0 | 2.6 | 0.00 | 0.00 | 0.00 | 44 | 1019.4 |
| 20260507070556 | 53 | 0 | 0.0 | 0.0 | 0.00 | 0.00 | 0.00 | 44 | 1019.3 |
| 20260507070055 | 52 | 0 | 0.0 | 2.6 | 0.00 | 0.00 | 0.00 | 43 | 1019.3 |
| 20260507065556 | 52 | 0 | 0.0 | 2.6 | 0.00 | 0.00 | 0.00 | 43 | 1019.3 |
| 20260507065055 | 52 | 236 | 0.0 | 4.3 | 0.00 | 0.00 | 0.00 | 43 | 1019.3 |
| 20260507064555 | 53 | 0 | 0.0 | 4.3 | 0.00 | 0.00 | 0.00 | 44 | 1019.3 |
| 20260507064056 | 53 | 236 | 2.6 | 4.3 | 0.00 | 0.00 | 0.00 | 42 | 1019.4 |
| 20260507063556 | 52 | 0 | 0.0 | 3.5 | 0.00 | 0.00 | 0.00 | 44 | 1019.3 |
| 20260507063056 | 53 | 0 | 0.0 | 4.3 | 0.00 | 0.00 | 0.00 | 44 | 1019.3 |
| 20260507062555 | 53 | 236 | 2.6 | 4.3 | 0.00 | 0.00 | 0.00 | 42 | 1019.3 |
| 20260507062055 | 53 | 236 | 0.0 | 3.5 | 0.00 | 0.00 | 0.00 | 42 | 1019.2 |
| 20260507061558 | 53 | 0 | 0.0 | 0.0 | 0.00 | 0.00 | 0.00 | 43 | 1019.5 |
| 20260507061055 | 52 | 0 | 0.0 | 0.0 | 0.00 | 0.00 | 0.00 | 44 | 1019.4 |
| 20260507060555 | 52 | 0 | 0.0 | 0.0 | 0.00 | 0.00 | 0.00 | 45 | 1019.3 |